This is the latest recevied weather packets stored in our database for station/object KD7CIH. If no packets are shown the sender has not sent any weather packets the latest 10 day(s).
| Time | Temp. | Humidity | Pressure | Rain* | Wind** | Luminosity | Snow |
|---|---|---|---|---|---|---|---|
| 1777927529 | 19.44° C | 15% | 1003 hPa | 0 mm | - | - | - |
| 1777927229 | 19.44° C | 16% | 1003 hPa | 0 mm | - | - | - |
| 1777926930 | 19.44° C | 15% | 1003.1 hPa | 0 mm | - | - | - |
| 1777926630 | 20° C | 16% | 1003.1 hPa | 0 mm | - | - | - |
| 1777926330 | 19.44° C | 17% | 1003.1 hPa | 0 mm | - | - | - |
| 1777926029 | 20° C | 16% | 1003.2 hPa | 0 mm | - | - | - |
| 1777925729 | 19.44° C | 17% | 1003.4 hPa | 0 mm | - | - | - |
| 1777925429 | 19.44° C | 17% | 1003.4 hPa | 0 mm | - | - | - |
| 1777925128 | 18.89° C | 17% | 1003.6 hPa | 0 mm | - | - | - |
| 1777924934 | 18.89° C | 17% | 1003.6 hPa | 0 mm | - | - | - |
| 1777924530 | 18.89° C | 17% | 1003.7 hPa | 0 mm | - | - | - |
| 1777924230 | 19.44° C | 17% | 1003.7 hPa | 0 mm | - | - | - |
| 1777923931 | 19.44° C | 18% | 1003.6 hPa | 0 mm | - | - | - |
| 1777923734 | 19.44° C | 17% | 1003.8 hPa | 0 mm | - | - | - |
| 1777923331 | 19.44° C | 17% | 1003.7 hPa | 0 mm | - | - | - |
| 1777923030 | 18.89° C | 18% | 1004 hPa | 0 mm | - | - | - |
| 1777922731 | 18.89° C | 18% | 1004 hPa | 0 mm | - | - | - |
| 1777922430 | 18.33° C | 18% | 1004.1 hPa | 0 mm | - | - | - |
| 1777922130 | 18.33° C | 18% | 1004.2 hPa | 0 mm | - | - | - |
| 1777921936 | 18.33° C | 17% | 1004.2 hPa | 0 mm | - | - | - |
| 1777921534 | 18.89° C | 18% | 1004.2 hPa | 0 mm | - | - | - |
| 1777921231 | 18.89° C | 18% | 1004.4 hPa | 0 mm | - | - | - |
| 1777920932 | 19.44° C | 18% | 1004.4 hPa | 0 mm | - | - | - |
| 1777920630 | 18.89° C | 18% | 1004.4 hPa | 0 mm | - | - | - |
| 1777920330 | 18.89° C | 20% | 1004.7 hPa | 0 mm | - | - | - |
* Rain latest hour (hover to see other rain measurements)
** Current wind speed in m/s (hover to see current wind gust speed)